Home > Time Zones > World Clock > Weather > Italy > Genoa > Past weeks

Flag for Italy Weather past 2 weeks in Genoa, Italy

Now
77 °F

Scattered clouds.


Feels Like: 78 °F
Forecast: 57 / 68 °F
Wind: 9 mph from Northwest

Location: Genova / Sestri

Current Time: May 27, 2015 at 2:44:38 PM

Latest Report: May 27, 2015 at 1:50 PM


Visibility: N/A

Pressure: 29.95 "Hg

Humidity: 32%

Dew point: 45 °F

Location of GenoaLocation

Historic Weather in Genoa — Graph

°F

Genoa temperature yesterday

Maximum temperature yesterday: 68 °F (at 10:20 AM)
Minimum temperature yesterday: 61 °F (at 4:50 AM)
Average temperature yesterday: 64 °F

Past Weeks' High & Low Weather Summary

 TemperatureHumidityPressure
High84 °F (May 17, 2:20 PM)100% (May 26, 4:50 AM)30.24 "Hg (May 26, 4:50 AM)
Low54 °F (May 21, 7:20 AM)30% (May 27, 1:20 PM)29.62 "Hg (May 15, 8:50 AM)
Average66 °F66%29.91 "Hg
* Reported May 12 1:20 PM — May 27 1:20 PM, Genoa, Weather by CustomWeather, © 2015

Note: Actual official high and low records may vary slightly from our data, if they occured in-between our weather recording intervals... More about our weather records

Advertising

Genoa weather history for previous 24 hours

 ConditionsComfort  
Time TempWeatherWind HumidityBarometerVisibility
1:20 PM
Wed, May 27
77 °FScattered clouds.10 mph30%29.95 "HgN/A
12:50 PM75 °FScattered clouds.10 mph36%29.95 "HgN/A
12:20 PM75 °FScattered clouds.6 mph34%29.95 "HgN/A
11:50 AM73 °FPassing clouds.10 mph33%29.95 "HgN/A
11:20 AM73 °FPassing clouds.12 mph33%29.95 "HgN/A
10:50 AM72 °FPassing clouds.7 mph38%29.95 "HgN/A
10:20 AM72 °FPassing clouds.13 mph41%29.95 "HgN/A
9:50 AM70 °FSunny.9 mph46%29.95 "Hg10 mi
9:20 AM68 °FScattered clouds.9 mph53%29.95 "HgN/A
8:50 AM66 °FScattered clouds.10 mph56%29.95 "HgN/A
8:20 AM63 °FPartly sunny.12 mph64%29.95 "HgN/A
7:50 AM64 °FPartly sunny.10 mph60%29.92 "HgN/A
7:20 AM63 °FPartly sunny.12 mph59%29.92 "HgN/A
6:50 AM64 °FPartly sunny.7 mph52%29.92 "HgN/A
6:20 AM64 °FPassing clouds.3 mph52%29.92 "HgN/A
5:50 AM64 °FPassing clouds.9 mph49%29.89 "HgN/A
5:20 AM66 °FPassing clouds.10 mph43%29.86 "HgN/A
4:50 AM68 °FPassing clouds.10 mph38%29.86 "HgN/A
4:20 AM68 °FClear.9 mph38%29.86 "Hg10 mi
3:50 AM68 °FPassing clouds.10 mph38%29.86 "HgN/A
3:20 AM68 °FPassing clouds.13 mph40%29.86 "HgN/A
2:50 AM68 °FPassing clouds.9 mph40%29.89 "HgN/A
2:20 AM66 °FPassing clouds.8 mph49%29.89 "HgN/A
1:50 AM66 °FPassing clouds.9 mph49%29.89 "HgN/A
1:20 AM66 °FPassing clouds.12 mph56%29.89 "HgN/A
12:50 AM66 °FPassing clouds.13 mph49%29.89 "HgN/A
12:20 AM64 °FPassing clouds.7 mph68%29.89 "HgN/A
11:50 PM
Tue, May 26
63 °FClear.2 mph77%29.89 "Hg10 mi
11:20 PM63 °FClear.6 mph77%29.89 "Hg10 mi
10:50 PM63 °FClear.5 mph77%29.89 "Hg10 mi
10:20 PM63 °FClear.3 mph77%29.89 "Hg10 mi
9:50 PM64 °FSunny.2 mph73%29.86 "Hg10 mi
9:20 PM64 °FPassing clouds.2 mph78%29.86 "HgN/A
8:50 PM64 °FPassing clouds.2 mph78%29.83 "HgN/A
8:20 PM66 °FPassing clouds.2 mph73%29.83 "HgN/A
7:50 PM66 °FPassing clouds.3 mph68%29.83 "HgN/A
7:20 PM66 °FPassing clouds.3 mph73%29.83 "HgN/A
6:50 PM68 °FScattered clouds.3 mph64%29.83 "HgN/A
6:20 PM68 °FScattered clouds.5 mph69%29.83 "HgN/A
5:50 PM68 °FScattered clouds.7 mph64%29.80 "HgN/A
5:20 PM68 °FPassing clouds.6 mph64%29.80 "HgN/A
4:50 PM66 °FScattered clouds.7 mph73%29.80 "HgN/A
4:20 PM66 °FScattered clouds.9 mph78%29.80 "HgN/A
3:50 PM68 °FScattered clouds.7 mph73%29.80 "HgN/A
2:50 PM66 °FPartly sunny.5 mph73%29.83 "HgN/A
Weather by CustomWeather, © 2015

See weather overviewHow to use our weather pages